[[{"header":{"parameterUnit":"m.s-1","parameterCategory":1,"la1":30.2992,"la2":30.254,"lo1":-89.0895,"lo2":-89.0443,"dy":0.0025,"dx":0.0025,"nx":19,"ny":19,"refTime":"2026-04-28T03:00:00:Z","depth":0,"parameterNumber":2,"parameterNumberName":"U-component_of_WINDS"},"data":[0,0,0,-3.0708,-3.0709,-3.0745,-3.0745,-3.0804,-3.0804,0,0,0,0,0,0,0,0,0,0,0,-3.0704,-3.0704,-3.0708,-3.0709,-3.0745,-3.0745,-3.0803,-3.0804,0,0,0,0,0,0,0,0,0,0,0,-3.0703,-3.0704,-3.0705,-3.0709,-3.0745,-3.0745,-3.0803,-3.0772,0,0,0,0,0,0,0,0,0,0,-3.0734,-3.0737,-3.0704,-3.0705,-3.0709,-3.0745,-3.0745,-3.077,-3.0774,-3.0792,0,-3.081,0,-3.0808,-3.0809,-3.0809,0,0,0,-3.0704,-3.0734,-3.0738,-3.0705,-3.0709,-3.0745,-3.0727,-3.0772,-3.0776,-3.0797,-3.081,-3.0812,-3.0809,-3.0809,-3.081,-3.0932,-3.0933,0,0,-3.0702,-3.0714,-3.0735,-3.0741,-3.0735,-3.0726,-3.0728,-3.0774,-3.079,-3.0811,-3.0814,-3.081,-3.081,-3.081,-3.0931,-3.0932,0,0,0,-3.0699,-3.0712,-3.0715,-3.0739,-3.0744,-3.0727,-3.073,-3.0788,-3.0787,-3.0814,-3.0811,-3.081,-3.0811,-3.0931,-3.0932,-3.0983,0,0,0,-3.0698,-3.0711,-3.0714,-3.0722,-3.0744,-3.0766,-3.0742,-3.0784,-3.0789,-3.081,-3.081,-3.0812,-3.093,-3.0931,-3.0979,-3.1004,0,0,0,-3.0699,-3.0711,-3.0719,-3.0722,-3.0739,-3.0765,-3.0768,-3.0785,-3.0787,-3.0809,-3.0812,-3.0929,-3.0931,-3.0976,-3.0999,-3.1039,0,0,0,-3.0703,-3.0763,-3.072,-3.0785,-3.0738,-3.0797,-3.0767,-3.081,-3.0835,-3.081,-3.093,-3.0932,-3.0975,-3.0996,-3.1036,-3.1074,-3.1091,0,0,-3.0785,-3.0773,-3.0811,-3.0773,-3.0842,-3.079,-3.0867,-3.0879,-3.087,-3.0912,-3.0915,-3.098,-3.0999,-3.1039,-3.1187,-3.1201,0,0,0,-3.0841,-3.0868,-3.0884,-3.0908,-3.0919,-3.093,-3.0929,-3.0933,-3.0969,-3.0894,-3.1006,-3.1017,-3.104,-3.1057,-3.1069,-3.1088,-3.0941,-3.0941,-3.094,-3.0972,-3.0958,-3.102,-3.1011,-3.1036,-3.1035,-3.1053,-3.106,-3.1038,-3.1066,-3.1077,-3.1169,-3.119,-3.1199,-3.1218,-3.1097,-3.1098,-3.1098,-3.1098,-3.1089,-3.1125,-3.1098,-3.1147,-3.1133,-3.1175,-3.1177,-3.1161,-3.1198,-3.1158,-3.1178,-3.1134,-3.1214,-3.1231,-3.1102,-3.1101,-3.1101,-3.11,-3.11,-3.1172,-3.1187,-3.1192,-3.1227,-3.1256,-3.1246,-3.1284,-3.127,-3.1257,-3.1277,-3.1287,-3.1286,-3.1283,-3.1283,-3.1283,-3.1284,-3.1284,-3.1284,-3.1284,-3.1255,-3.126,-3.1292,-3.1311,-3.1325,-3.1343,-3.1345,-3.1359,-3.1371,-3.1358,-3.1358,-3.1334,-3.1225,-3.1197,-3.1289,-3.1288,-3.1288,-3.1287,-3.1287,-3.1376,-3.1347,-3.1397,-3.1412,-3.1433,-3.1463,-3.1446,-3.1477,-3.1487,-3.1506,-3.1479,-3.1401,-3.1388,-3.1378,-3.1355,-3.1482,-3.1482,-3.1482,-3.1482,-3.1445,-3.1437,-3.1486,-3.1511,-3.1534,-3.1525,-3.1583,-3.1587,-3.1585,-3.1591,-3.1571,-3.1539,-3.1531,-3.1522,-3.151,-3.1487,-3.1646,-3.1646,-3.1646,-3.1518,-3.1513,-3.1564,-3.1563,-3.1579,-3.1593,-3.1648,-3.1678,-3.1671,-3.1652,-3.1595,-3.1588,-3.1537,-3.1521,-3.1499,-3.148,-3.1439,0,0]},{"header":{"parameterUnit":"m.s-1","parameterCategory":1,"la1":30.2992,"la2":30.254,"lo1":-89.0895,"lo2":-89.0443,"dy":0.0025,"dx":0.0025,"nx":19,"ny":19,"refTime":"2026-04-28T03:00:00:Z","depth":0,"parameterNumber":3,"parameterNumberName":"V-component_of_WINDS"},"data":[0,0,0,4.2454,4.2452,4.2374,4.2374,4.2266,4.2265,0,0,0,0,0,0,0,0,0,0,0,4.2475,4.2474,4.2454,4.2452,4.2374,4.2374,4.2266,4.2265,0,0,0,0,0,0,0,0,0,0,0,4.2475,4.2475,4.2474,4.2452,4.2374,4.2374,4.2266,4.2327,0,0,0,0,0,0,0,0,0,0,4.2405,4.2422,4.2475,4.2474,4.2452,4.2374,4.2374,4.233,4.2324,4.2299,0,4.2279,0,4.227,4.2257,4.2257,0,0,0,4.2453,4.2428,4.2409,4.2473,4.2451,4.2374,4.2409,4.2327,4.2319,4.229,4.2277,4.2273,4.2269,4.2257,4.2256,4.212,4.2119,0,0,4.2457,4.2459,4.2415,4.2404,4.2419,4.2412,4.2407,4.2322,4.2307,4.2277,4.2271,4.2267,4.2256,4.2255,4.212,4.212,0,0,0,4.2469,4.2462,4.2445,4.2409,4.2395,4.241,4.2404,4.2311,4.2306,4.227,4.2266,4.2255,4.2254,4.2121,4.212,4.2091,0,0,0,4.2472,4.2469,4.2447,4.2447,4.2397,4.2353,4.2395,4.2312,4.2302,4.2266,4.2255,4.2253,4.2122,4.2121,4.2093,4.2075,0,0,0,4.2481,4.247,4.2458,4.2448,4.2414,4.2354,4.2344,4.2309,4.2299,4.2257,4.2252,4.2122,4.2121,4.2095,4.2079,4.2041,0,0,0,4.249,4.243,4.2458,4.2389,4.2415,4.2337,4.2344,4.2285,4.2245,4.2255,4.2122,4.212,4.2096,4.2081,4.2043,4.201,4.1996,0,0,4.2415,4.2421,4.2381,4.2403,4.2322,4.2349,4.2262,4.2222,4.2214,4.2151,4.2148,4.2092,4.2079,4.2042,4.1919,4.1908,0,0,0,4.2357,4.2328,4.2307,4.2271,4.2242,4.2215,4.2189,4.2175,4.2122,4.2183,4.2068,4.206,4.2038,4.2022,4.2013,4.1994,4.2113,4.2113,4.2113,4.2251,4.225,4.2183,4.2172,4.2137,4.2114,4.2085,4.2061,4.2065,4.2038,4.2019,4.1946,4.1927,4.192,4.19,4.2001,4.2001,4.2001,4.2001,4.2141,4.21,4.2113,4.2053,4.2051,4.1999,4.1975,4.198,4.1931,4.1959,4.1939,4.197,4.1908,4.1891,4.1999,4.1999,4.1999,4.2,4.2,4.2071,4.2052,4.2039,4.1989,4.1951,4.1941,4.1895,4.1894,4.1891,4.1872,4.1852,4.1853,4.1853,4.1863,4.1863,4.1863,4.1862,4.1862,4.1862,4.2004,4.199,4.1953,4.1921,4.1899,4.1871,4.1848,4.1826,4.1801,4.1803,4.1803,4.1811,4.1903,4.1927,4.1858,4.1859,4.1859,4.186,4.186,4.1892,4.1919,4.1861,4.184,4.1803,4.1766,4.1767,4.1723,4.1704,4.1681,4.1694,4.1763,4.1768,4.1775,4.1794,4.1695,4.1695,4.1695,4.1695,4.1833,4.1837,4.178,4.1747,4.1715,4.1711,4.1645,4.1628,4.1613,4.1601,4.1616,4.1641,4.1649,4.1649,4.1659,4.1677,4.155,4.155,4.155,4.1765,4.1766,4.1711,4.1702,4.1674,4.1649,4.1588,4.1547,4.1536,4.1544,4.1592,4.1598,4.164,4.1653,4.166,4.1676,4.1709,0,0]}]]